Regional Weather Roundup
Issued by NWS Kansas City/Pleasant Hill, MO

Home | Current Version | Previous Version | Graphics & Text | Print | Product List | Glossary Off
Versions: 1 2 3 4 5 6 7 8 9 10 11 12 13 14 15 16 17 18 19 20 21 22 23 24 25 26 27 28 29 30 31 32 33 34 35 36 37 38 39 40 41 42 43 44 45 46 47 48 49 50

000
ASUS43 KEAX 062110
RWREAX

WEATHER ROUNDUP FOR EASTERN KANSAS AND NORTHWEST MISSOURI
NATIONAL WEATHER SERVICE KANSAS CITY/PLEASANT HILL MO
300 PM CST SAT FEB 06 2016

KSZ040-057-103>105-MOZ028-029-037-043-062200-
...KANSAS CITY METROPOLITAN AREA...

CITY           SKY/WX    TMP DP  RH WIND       PRES   REMARKS
K.C. INTL      SUNNY     48  29  47 W15       30.21F
K.C. DOWNTOWN  SUNNY     50  28  42 SW10      30.22F
LEES SUMMIT    SUNNY     48  30  49 SW14      30.22F
OLATHE - IXD   LGT RAIN  48  30  49 SW13      30.24F
OLATHE - OJC   SUNNY     47  29  49 W9        30.23F
LAWRENCE       SUNNY     49  29  46 SW13      30.22F

$$

MOZ001>008-011>017-020>025-030>033-038>040-044>046-053-054-062200-
...NORTHERN AND CENTRAL MISSOURI...

CITY           SKY/WX    TMP DP  RH WIND       PRES   REMARKS
ST. JOSEPH     SUNNY     48  29  47 SW14G21   30.19F
MOSBY          CLEAR     48  30  49 SW8       30.22F
WARRENSBURG    SUNNY     48  30  49 SW9       30.23S
WHITEMAN AFB   SUNNY     51  27  39 W14       30.21F
CLINTON          N/A     52  30  43 SW12      30.25S
SEDALIA        SUNNY     52  27  38 SW10      30.23F
WARSAW         NOT AVBL
CHILLICOTHE      N/A     49  32  52 SW10G18   30.21F
KIRKSVILLE     SUNNY     47  28  47 SW14      30.18F

$$

MOZ041-047>049-056>058-063>065-088>090-097-062200-
...EASTERN AND SOUTHERN MISSOURI...

CITY           SKY/WX    TMP DP  RH WIND       PRES   REMARKS
ST. LOUIS INTL MOSUNNY   57  27  31 W14G25    30.21F
SPIRIT OF STL  MOSUNNY   56  27  32 SW14      30.20F
COLUMBIA       SUNNY     54  28  36 SW15G22   30.20F
JEFFERSON CITY SUNNY     55  27  34 SW15G22   30.21F
ROLLA          PTSUNNY   53  27  36 SW20      30.20S
OSAGE BEACH    MOSUNNY   55  27  33 SW9G21    30.23S
SPRINGFIELD    MOSUNNY   54  26  34 W9        30.23F
BRANSON        MOSUNNY   54  21  28 W6        30.26F
JOPLIN         MOSUNNY   51  31  46 SW12      30.26F
WEST PLAINS    SUNNY     53  18  25 S7        30.26F

$$

IAZ060-094-KSZ022-034>040-054-083-096-NEZ052-066-093-062200-
...KANSAS...SOUTHEAST NEBRASKA AND IOWA...

CITY           SKY/WX    TMP DP  RH WIND       PRES   REMARKS
TOPEKA         SUNNY     50  27  40 W12       30.21F
MANHATTAN      SUNNY     49  28  44 SW9       30.20F
EMPORIA        SUNNY     49  28  44 W9G22     30.23F
CHANUTE        SUNNY     51  29  42 SW9       30.26F
WICHITA        MOSUNNY   51  23  33 W13       30.26F
OMAHA          PTSUNNY   41  27  57 S15G22    30.10F WCI  33
LINCOLN        SUNNY     38  26  62 S15       30.12F WCI  29
FALLS CITY     SUNNY     48  30  49 SW14      30.17F
LAMONI         PTSUNNY   37  32  82 SW12      30.16F WCI  29
DES MOINES     MOSUNNY   35  28  75 SW13      30.14F WCI  26

$$




USA.gov is the U.S. government's official web portal to all federal, state and local government web resources and services.